Time,TemperatureF,DewpointF,PressureIn,WindDirection,WindDirectionDegrees,WindSpeedMPH,WindSpeedGustMPH,Humidity,HourlyPrecipIn,Conditions,Clouds,dailyrainin,SoftwareType,DateUTC
2013-02-08 00:01:00,48.0,45.0,29.96,SSE,162,2.0,8.0,89,0.00,,,0.03,,2013-02-08 06:01:00,
2013-02-08 00:11:00,48.0,45.0,29.96,SSE,162,2.0,8.0,89,0.00,,,0.03,,2013-02-08 06:11:00,
2013-02-08 00:21:00,48.0,45.0,29.96,South,170,1.0,5.0,89,0.00,,,0.03,,2013-02-08 06:21:00,
2013-02-08 00:31:00,48.0,45.0,29.95,South,170,1.0,7.0,88,0.00,,,0.03,,2013-02-08 06:31:00,
2013-02-08 00:42:00,48.0,45.0,29.95,South,170,1.0,7.0,88,0.00,,,0.03,,2013-02-08 06:42:00,
2013-02-08 00:52:00,48.0,45.0,29.95,SSE,152,2.0,6.0,88,0.00,,,0.03,,2013-02-08 06:52:00,
2013-02-08 01:01:00,48.0,45.0,29.95,SSE,152,2.0,6.0,88,0.00,,,0.03,,2013-02-08 07:01:00,
2013-02-08 01:11:00,48.0,44.0,29.92,ESE,107,1.0,3.0,87,0.00,,,0.03,,2013-02-08 07:11:00,
2013-02-08 01:21:00,48.0,44.0,29.92,ESE,107,1.0,3.0,87,0.00,,,0.03,,2013-02-08 07:21:00,
2013-02-08 01:31:00,48.0,45.0,29.92,SE,135,1.0,7.0,88,0.00,,,0.03,,2013-02-08 07:31:00,
2013-02-08 01:42:00,48.0,45.0,29.91,SSE,162,2.0,5.0,88,0.00,,,0.03,,2013-02-08 07:42:00,
2013-02-08 01:52:00,48.0,45.0,29.91,SSE,162,2.0,5.0,88,0.00,,,0.03,,2013-02-08 07:52:00,
2013-02-08 02:01:00,47.0,44.0,29.92,South,170,1.0,5.0,89,0.00,,,0.03,,2013-02-08 08:01:00,
2013-02-08 02:11:00,47.0,44.0,29.92,SSW,202,3.0,5.0,89,0.00,,,0.03,,2013-02-08 08:11:00,
2013-02-08 02:21:00,47.0,44.0,29.92,SSW,202,3.0,5.0,89,0.00,,,0.03,,2013-02-08 08:21:00,
2013-02-08 02:32:00,46.0,43.0,29.93,SSW,204,2.0,5.0,90,0.00,,,0.03,,2013-02-08 08:32:00,
2013-02-08 02:41:00,46.0,43.0,29.93,SSW,204,2.0,5.0,90,0.00,,,0.03,,2013-02-08 08:41:00,
2013-02-08 02:52:00,47.0,45.0,29.91,SSW,201,1.0,3.0,91,0.00,,,0.03,,2013-02-08 08:52:00,
2013-02-08 03:03:00,47.0,45.0,29.92,SSW,200,3.0,6.0,91,0.00,,,0.03,,2013-02-08 09:03:00,
2013-02-08 03:11:00,47.0,45.0,29.92,SSW,200,3.0,6.0,91,0.00,,,0.03,,2013-02-08 09:11:00,
2013-02-08 03:21:00,47.0,45.0,29.92,SSW,199,6.0,9.0,92,0.00,,,0.03,,2013-02-08 09:21:00,
2013-02-08 03:31:00,47.0,45.0,29.92,SSW,199,6.0,9.0,92,0.00,,,0.03,,2013-02-08 09:31:00,
2013-02-08 03:42:00,47.0,45.0,29.92,SSW,199,6.0,9.0,92,0.00,,,0.03,,2013-02-08 09:42:00,
2013-02-08 03:52:00,47.0,45.0,29.93,South,189,9.0,14.0,92,0.00,,,0.03,,2013-02-08 09:52:00,
2013-02-08 04:01:00,48.0,45.0,29.93,SSW,198,7.0,14.0,91,0.00,,,0.03,,2013-02-08 10:01:00,
2013-02-08 04:11:00,48.0,45.0,29.93,SSW,198,7.0,14.0,91,0.00,,,0.03,,2013-02-08 10:11:00,
2013-02-08 04:22:00,48.0,46.0,29.94,SSW,194,7.0,12.0,92,0.00,,,0.03,,2013-02-08 10:22:00,
2013-02-08 04:31:00,48.0,46.0,29.93,SSW,209,3.0,10.0,92,0.00,,,0.03,,2013-02-08 10:31:00,
2013-02-08 04:41:00,48.0,46.0,29.93,SSW,209,3.0,10.0,92,0.00,,,0.03,,2013-02-08 10:41:00,
2013-02-08 04:52:00,48.0,46.0,29.93,SSW,196,2.0,6.0,92,0.00,,,0.02,,2013-02-08 10:52:00,
2013-02-08 05:01:00,48.0,46.0,29.93,SSW,196,2.0,6.0,92,0.00,,,0.02,,2013-02-08 11:01:00,
2013-02-08 05:11:00,48.0,46.0,29.93,SSW,196,2.0,6.0,92,0.00,,,0.02,,2013-02-08 11:11:00,
2013-02-08 05:21:00,48.0,46.0,29.96,SW,227,0.0,5.0,92,0.06,,,0.08,,2013-02-08 11:21:00,
2013-02-08 05:32:00,48.0,46.0,29.98,NNW,344,1.0,3.0,93,0.15,,,0.16,,2013-02-08 11:32:00,
2013-02-08 05:42:00,48.0,46.0,29.98,NNW,344,1.0,3.0,93,0.15,,,0.16,,2013-02-08 11:42:00,
2013-02-08 05:52:00,47.0,45.0,29.97,SSW,207,4.0,7.0,93,0.26,,,0.27,,2013-02-08 11:52:00,
2013-02-08 06:02:00,47.0,45.0,29.96,SSW,202,0.0,2.0,93,0.28,,,0.29,,2013-02-08 12:02:00,
2013-02-08 06:11:00,47.0,45.0,29.96,SSW,202,0.0,2.0,93,0.28,,,0.29,,2013-02-08 12:11:00,
2013-02-08 06:22:00,47.0,45.0,29.96,South,173,2.0,3.0,94,0.25,,,0.36,,2013-02-08 12:22:00,
2013-02-08 06:32:00,47.0,45.0,29.97,South,174,1.0,3.0,94,0.25,,,0.40,,2013-02-08 12:32:00,
2013-02-08 06:42:00,47.0,45.0,29.97,South,174,1.0,3.0,94,0.25,,,0.40,,2013-02-08 12:42:00,
2013-02-08 06:52:00,47.0,45.0,29.97,SSE,164,1.0,3.0,94,0.18,,,0.44,,2013-02-08 12:52:00,
2013-02-08 07:01:00,47.0,45.0,29.96,SSE,159,0.0,2.0,94,0.16,,,0.45,,2013-02-08 13:01:00,
2013-02-08 07:11:00,47.0,45.0,29.96,SSE,159,0.0,2.0,94,0.16,,,0.45,,2013-02-08 13:11:00,
2013-02-08 07:22:00,47.0,45.0,29.97,South,172,1.0,3.0,94,0.09,,,0.45,,2013-02-08 13:22:00,
2013-02-08 07:32:00,47.0,45.0,29.97,South,172,1.0,3.0,94,0.09,,,0.45,,2013-02-08 13:32:00,
2013-02-08 07:42:00,47.0,45.0,29.97,South,172,1.0,3.0,94,0.09,,,0.45,,2013-02-08 13:42:00,
2013-02-08 07:52:00,48.0,46.0,30.00,South,173,0.0,0.0,94,0.01,,,0.45,,2013-02-08 13:52:00,
2013-02-08 08:02:00,48.0,46.0,30.00,South,173,0.0,0.0,94,0.01,,,0.45,,2013-02-08 14:02:00,
2013-02-08 08:11:00,48.0,46.0,30.00,South,173,0.0,0.0,94,0.01,,,0.45,,2013-02-08 14:11:00,
2013-02-08 08:21:00,48.0,47.0,30.02,SSW,196,0.0,3.0,95,0.00,,,0.45,,2013-02-08 14:21:00,
2013-02-08 08:32:00,48.0,46.0,30.03,SSW,196,0.0,0.0,94,0.01,,,0.46,,2013-02-08 14:32:00,
2013-02-08 08:42:00,48.0,46.0,30.03,SSW,196,0.0,0.0,94,0.01,,,0.46,,2013-02-08 14:42:00,
2013-02-08 08:52:00,48.0,46.0,30.03,SSW,198,0.0,0.0,94,0.01,,,0.46,,2013-02-08 14:52:00,
2013-02-08 09:02:00,48.0,47.0,30.04,NNW,341,0.0,3.0,95,0.02,,,0.47,,2013-02-08 15:02:00,
2013-02-08 09:11:00,48.0,47.0,30.04,NNW,341,0.0,3.0,95,0.02,,,0.47,,2013-02-08 15:11:00,
2013-02-08 09:22:00,48.0,47.0,30.05,NNW,331,0.0,5.0,95,0.02,,,0.47,,2013-02-08 15:22:00,
2013-02-08 09:32:00,48.0,47.0,30.05,North,354,1.0,5.0,95,0.01,,,0.47,,2013-02-08 15:32:00,
2013-02-08 09:42:00,48.0,47.0,30.05,North,354,1.0,5.0,95,0.01,,,0.47,,2013-02-08 15:42:00,
2013-02-08 09:52:00,48.0,47.0,30.06,North,359,3.0,10.0,95,0.02,,,0.48,,2013-02-08 15:52:00,
2013-02-08 10:01:00,48.0,46.0,30.07,North,356,6.0,13.0,94,0.02,,,0.49,,2013-02-08 16:01:00,
2013-02-08 10:11:00,48.0,46.0,30.07,North,356,6.0,13.0,94,0.02,,,0.49,,2013-02-08 16:11:00,
2013-02-08 10:22:00,48.0,46.0,30.08,North,0,10.0,16.0,94,0.04,,,0.51,,2013-02-08 16:22:00,
2013-02-08 10:32:00,47.0,45.0,30.09,North,6,8.0,16.0,94,0.04,,,0.51,,2013-02-08 16:32:00,
2013-02-08 10:42:00,47.0,45.0,30.09,North,6,8.0,16.0,94,0.04,,,0.51,,2013-02-08 16:42:00,
2013-02-08 10:52:00,47.0,45.0,30.09,North,10,8.0,14.0,92,0.03,,,0.51,,2013-02-08 16:52:00,
2013-02-08 11:03:00,47.0,45.0,30.09,North,10,8.0,14.0,92,0.03,,,0.51,,2013-02-08 17:03:00,
2013-02-08 11:12:00,47.0,45.0,30.09,North,10,8.0,14.0,92,0.03,,,0.51,,2013-02-08 17:12:00,
2013-02-08 11:22:00,46.0,43.0,30.11,North,0,7.0,18.0,90,0.00,,,0.51,,2013-02-08 17:22:00,
2013-02-08 11:33:00,46.0,42.0,30.11,NNE,12,10.0,22.0,87,0.00,,,0.51,,2013-02-08 17:33:00,
2013-02-08 11:42:00,46.0,42.0,30.11,NNE,12,10.0,22.0,87,0.00,,,0.51,,2013-02-08 17:42:00,
2013-02-08 11:53:00,46.0,42.0,30.11,North,358,10.0,16.0,86,0.00,,,0.51,,2013-02-08 17:53:00,
2013-02-08 12:02:00,46.0,42.0,30.12,NNE,13,10.0,16.0,85,0.00,,,0.51,,2013-02-08 18:02:00,
2013-02-08 12:12:00,46.0,42.0,30.12,NNE,13,10.0,16.0,85,0.00,,,0.51,,2013-02-08 18:12:00,
2013-02-08 12:24:00,48.0,43.0,30.12,North,5,6.0,14.0,84,0.00,,,0.51,,2013-02-08 18:24:00,
2013-02-08 12:34:00,48.0,42.0,30.12,NNE,29,9.0,17.0,80,0.00,,,0.51,,2013-02-08 18:34:00,
2013-02-08 12:43:00,48.0,42.0,30.12,NNE,29,9.0,17.0,80,0.00,,,0.51,,2013-02-08 18:43:00,
2013-02-08 12:52:00,47.0,41.0,30.12,North,2,7.0,17.0,81,0.00,,,0.51,,2013-02-08 18:52:00,
2013-02-08 13:02:00,46.0,40.0,30.13,North,1,10.0,18.0,79,0.00,,,0.51,,2013-02-08 19:02:00,
2013-02-08 13:11:00,46.0,40.0,30.13,North,1,10.0,18.0,79,0.00,,,0.51,,2013-02-08 19:11:00,
2013-02-08 13:22:00,46.0,39.0,30.14,North,11,7.0,20.0,77,0.00,,,0.51,,2013-02-08 19:22:00,
2013-02-08 13:32:00,46.0,38.0,30.14,North,2,9.0,16.0,74,0.00,,,0.51,,2013-02-08 19:32:00,
2013-02-08 13:42:00,46.0,38.0,30.14,North,2,9.0,16.0,74,0.00,,,0.51,,2013-02-08 19:42:00,
2013-02-08 13:52:00,47.0,38.0,30.14,North,6,6.0,14.0,72,0.00,,,0.51,,2013-02-08 19:52:00,
2013-02-08 14:01:00,47.0,39.0,30.14,NNW,337,4.0,10.0,73,0.00,,,0.51,,2013-02-08 20:01:00,
2013-02-08 14:11:00,47.0,39.0,30.14,NNW,337,4.0,10.0,73,0.00,,,0.51,,2013-02-08 20:11:00,
2013-02-08 14:22:00,47.0,38.0,30.14,NNE,22,8.0,14.0,72,0.00,,,0.51,,2013-02-08 20:22:00,
2013-02-08 14:32:00,47.0,37.0,30.15,NNE,13,10.0,22.0,68,0.00,,,0.51,,2013-02-08 20:32:00,
2013-02-08 14:41:00,47.0,37.0,30.15,NNE,13,10.0,22.0,68,0.00,,,0.51,,2013-02-08 20:41:00,
2013-02-08 14:52:00,47.0,37.0,30.16,NNE,32,10.0,14.0,68,0.00,,,0.51,,2013-02-08 20:52:00,
2013-02-08 15:02:00,47.0,37.0,30.16,North,11,10.0,18.0,69,0.00,,,0.51,,2013-02-08 21:02:00,
2013-02-08 15:11:00,47.0,37.0,30.16,North,11,10.0,18.0,69,0.00,,,0.51,,2013-02-08 21:11:00,
2013-02-08 15:22:00,46.0,36.0,30.16,NNE,13,7.0,14.0,68,0.00,,,0.51,,2013-02-08 21:22:00,
2013-02-08 15:32:00,46.0,36.0,30.16,NNE,27,12.0,20.0,67,0.00,,,0.51,,2013-02-08 21:32:00,
2013-02-08 15:42:00,46.0,36.0,30.16,NNE,27,12.0,20.0,67,0.00,,,0.51,,2013-02-08 21:42:00,
2013-02-08 15:52:00,46.0,36.0,30.16,NNE,19,9.0,14.0,67,0.00,,,0.51,,2013-02-08 21:52:00,
2013-02-08 16:01:00,46.0,36.0,30.16,NNE,19,9.0,14.0,67,0.00,,,0.51,,2013-02-08 22:01:00,
2013-02-08 16:11:00,46.0,36.0,30.16,NNE,19,9.0,14.0,67,0.00,,,0.51,,2013-02-08 22:11:00,
2013-02-08 16:21:00,46.0,36.0,30.16,NNE,19,9.0,14.0,67,0.00,,,0.51,,2013-02-08 22:21:00,
2013-02-08 16:32:00,45.0,35.0,30.17,NNE,28,8.0,15.0,68,0.00,,,0.51,,2013-02-08 22:32:00,
2013-02-08 16:42:00,45.0,35.0,30.17,NNE,28,8.0,15.0,68,0.00,,,0.51,,2013-02-08 22:42:00,
2013-02-08 16:52:00,45.0,35.0,30.17,North,357,5.0,12.0,69,0.00,,,0.51,,2013-02-08 22:52:00,
2013-02-08 17:01:00,45.0,35.0,30.17,North,357,5.0,12.0,69,0.00,,,0.51,,2013-02-08 23:01:00,
2013-02-08 17:11:00,45.0,35.0,30.17,North,357,5.0,12.0,69,0.00,,,0.51,,2013-02-08 23:11:00,
2013-02-08 17:21:00,43.0,34.0,30.19,North,6,5.0,16.0,69,0.00,,,0.51,,2013-02-08 23:21:00,
2013-02-08 17:31:00,42.0,33.0,30.19,North,350,7.0,15.0,70,0.00,,,0.51,,2013-02-08 23:31:00,
2013-02-08 17:42:00,42.0,33.0,30.19,North,350,7.0,15.0,70,0.00,,,0.51,,2013-02-08 23:42:00,
2013-02-08 17:52:00,41.0,33.0,30.20,North,2,4.0,9.0,72,0.00,,,0.51,,2013-02-08 23:52:00,
2013-02-08 18:02:00,41.0,33.0,30.20,North,7,4.0,8.0,72,0.00,,,0.51,,2013-02-09 00:02:00,
2013-02-08 18:11:00,41.0,33.0,30.20,North,7,4.0,8.0,72,0.00,,,0.51,,2013-02-09 00:11:00,
2013-02-08 18:21:00,40.0,32.0,30.21,NNE,14,2.0,3.0,74,0.00,,,0.51,,2013-02-09 00:21:00,
2013-02-08 18:32:00,40.0,32.0,30.21,NNE,14,2.0,3.0,74,0.00,,,0.51,,2013-02-09 00:32:00,
2013-02-08 18:42:00,40.0,32.0,30.21,NNE,14,2.0,3.0,74,0.00,,,0.51,,2013-02-09 00:42:00,
2013-02-08 18:52:00,40.0,32.0,30.21,NNE,14,2.0,3.0,74,0.00,,,0.51,,2013-02-09 00:52:00,
2013-02-08 19:01:00,39.0,32.0,30.23,NNW,347,0.0,2.0,76,0.00,,,0.51,,2013-02-09 01:01:00,
2013-02-08 19:11:00,39.0,32.0,30.23,NNW,347,0.0,2.0,76,0.00,,,0.51,,2013-02-09 01:11:00,
2013-02-08 19:22:00,39.0,33.0,30.25,NNW,343,1.0,3.0,79,0.00,,,0.51,,2013-02-09 01:22:00,
2013-02-08 19:32:00,40.0,33.0,30.24,North,359,1.0,5.0,76,0.00,,,0.51,,2013-02-09 01:32:00,
2013-02-08 19:41:00,40.0,33.0,30.24,North,359,1.0,5.0,76,0.00,,,0.51,,2013-02-09 01:41:00,
2013-02-08 19:52:00,40.0,32.0,30.25,North,7,5.0,12.0,73,0.00,,,0.51,,2013-02-09 01:52:00,
2013-02-08 20:01:00,41.0,33.0,30.25,North,0,5.0,12.0,72,0.00,,,0.51,,2013-02-09 02:01:00,
2013-02-08 20:11:00,40.0,32.0,30.25,North,6,7.0,13.0,72,0.00,,,0.51,,2013-02-09 02:11:00,
2013-02-08 20:21:00,40.0,32.0,30.25,North,6,7.0,13.0,72,0.00,,,0.51,,2013-02-09 02:21:00,
2013-02-08 20:32:00,40.0,32.0,30.25,North,6,7.0,13.0,72,0.00,,,0.51,,2013-02-09 02:32:00,
2013-02-08 20:42:00,40.0,32.0,30.25,North,6,7.0,13.0,72,0.00,,,0.51,,2013-02-09 02:42:00,
2013-02-08 20:52:00,39.0,31.0,30.23,NE,39,10.0,14.0,73,0.00,,,0.51,,2013-02-09 02:52:00,
2013-02-08 21:01:00,39.0,31.0,30.23,NE,39,10.0,14.0,73,0.00,,,0.51,,2013-02-09 03:01:00,
2013-02-08 21:11:00,39.0,31.0,30.23,NE,39,10.0,14.0,73,0.00,,,0.51,,2013-02-09 03:11:00,
2013-02-08 21:21:00,38.0,31.0,30.21,NNE,25,5.0,13.0,77,0.00,,,0.51,,2013-02-09 03:21:00,
2013-02-08 21:32:00,38.0,31.0,30.21,NE,34,7.0,12.0,75,0.00,,,0.51,,2013-02-09 03:32:00,
2013-02-08 21:42:00,38.0,31.0,30.21,NE,34,7.0,12.0,75,0.00,,,0.51,,2013-02-09 03:42:00,
2013-02-08 21:53:00,38.0,31.0,30.21,NE,36,4.0,13.0,76,0.00,,,0.51,,2013-02-09 03:53:00,
2013-02-08 22:02:00,37.0,29.0,30.23,NE,42,1.0,3.0,74,0.00,,,0.51,,2013-02-09 04:02:00,
2013-02-08 22:12:00,37.0,29.0,30.24,NNE,25,9.0,14.0,73,0.00,,,0.51,,2013-02-09 04:12:00,
2013-02-08 22:23:00,37.0,29.0,30.24,NNE,25,9.0,14.0,73,0.00,,,0.51,,2013-02-09 04:23:00,
2013-02-08 22:32:00,37.0,29.0,30.24,NNE,25,9.0,14.0,73,0.00,,,0.51,,2013-02-09 04:32:00,
2013-02-08 22:42:00,37.0,29.0,30.24,NNE,25,9.0,14.0,73,0.00,,,0.51,,2013-02-09 04:42:00,
2013-02-08 22:52:00,36.0,29.0,30.24,NNE,18,5.0,12.0,74,0.00,,,0.51,,2013-02-09 04:52:00,
2013-02-08 23:02:00,36.0,29.0,30.27,NNW,345,3.0,7.0,75,0.00,,,0.51,,2013-02-09 05:02:00,
2013-02-08 23:12:00,36.0,29.0,30.27,NNW,345,3.0,7.0,75,0.00,,,0.51,,2013-02-09 05:12:00,
2013-02-08 23:22:00,36.0,29.0,30.26,NE,35,3.0,8.0,75,0.00,,,0.51,,2013-02-09 05:22:00,
2013-02-08 23:31:00,36.0,29.0,30.26,NNE,13,3.0,12.0,75,0.00,,,0.51,,2013-02-09 05:31:00,
2013-02-08 23:42:00,36.0,29.0,30.26,NNE,13,3.0,12.0,75,0.00,,,0.51,,2013-02-09 05:42:00,
2013-02-08 23:52:00,35.0,28.0,30.26,NNE,14,3.0,9.0,76,0.00,,,0.51,,2013-02-09 05:52:00,